Location: Broek
(53.2737°N, 5.9967°E)
Time: 21:11:06
(UTC+00:00)

Cosmos 1943 - Pass Details

Date: 10 October 2024
Orbit: 830 x 850 km, 71.0° (Epoch: 09 November)

Event Time Altitude Azimuth Distance (km) Brightness Sun altitude
Rises 17:20:13 0° 230° (SW) 3,385 7.4 -5.2°
Reaches altitude 10° 17:22:44 10° 236° (WSW) 2,457 6.7 -5.6°
Maximum altitude 17:28:11 48° 311° (NW) 1,093 4.2 -6.4°
Drops below altitude 10° 17:33:42 10° 26° (NNE) 2,483 5.4 -7.3°
Sets 17:36:16 0° 32° (NNE) 3,424 6.0 -7.6°
